Regional Weather Roundup
Issued by NWS

Home | Current Version | Previous Version | Graphics & Text | Print | Product List | Glossary Off
Versions: 1 2 3 4 5 6 7 8 9 10 11 12 13 14 15 16 17 18 19 20 21 22 23 24 25 26 27 28 29 30 31 32 33 34 35 36 37 38 39 40 41 42 43 44 45 46 47 48 49 50

000
ASUS43 KTOP 190959
RWRKS

WEATHER ROUNDUP FOR KANSAS
NATIONAL WEATHER SERVICE GOODLAND KS
500 AM CDT SAT APR 19 2014

NOTE:  "FAIR" INDICATES FEW OR NO CLOUDS BELOW 12,000 FEET WITH NO
SIGNIFICANT WEATHER AND/OR OBSTRUCTIONS TO VISIBILITY.

KSZ001>006-013>018-027>032-041>047-191100-
NORTHWEST KANSAS

CITY           SKY/WX    TMP DP  RH WIND       PRES   REMARKS
GOODLAND       CLOUDY    51  44  77 S18       29.86S
HAYS           MOCLDY    55  45  67 S21G26    29.97F
HILL CITY      MOCLDY    55  46  71 S14G21    29.93S
RUSSELL        CLOUDY    57  47  69 S24G32    29.97F
$$

KSZ061>065-074>080-084>089-191100-
SOUTHWEST KANSAS

CITY           SKY/WX    TMP DP  RH WIND       PRES   REMARKS
DODGE CITY     MOCLDY    54  46  74 S17       30.02S
ELKHART          N/A     54  40  59 S15         N/A
GARDEN CITY    MOCLDY    52  46  80 S25G32    29.96S
GREAT BEND     MOCLDY    55  45  67 S23       30.00F
LIBERAL        MOCLDY    54  43  66 S17       30.03S
$$

KSZ066>073-081>083-090>101-191100-
SOUTHEAST KANSAS

CITY           SKY/WX    TMP DP  RH WIND       PRES   REMARKS
CHANUTE        CLEAR     45  40  82 SE8       30.13S
COFFEYVILLE    CLEAR     42  39  89 CALM      30.14S
HUTCHINSON     PTCLDY    51  40  65 S10       30.07S
NEWTON         CLEAR     48  36  61 S9        30.11S
PARSONS        CLEAR     41  36  82 CALM      30.14S
WICHITA INTL   PTCLDY    48  39  71 S8        30.09S
WICHITA JABRA  CLEAR     50  41  71 S10       30.09F
WINFIELD       PTCLDY    49  41  74 S8        30.12S
$$

KSZ007>012-019>026-033>040-048>060-102>105-191100-
NORTHEAST KANSAS

CITY           SKY/WX    TMP DP  RH WIND       PRES   REMARKS
CONCORDIA      PTCLDY    54  40  59 S22G28    30.02F
EMPORIA        CLEAR     47  40  76 S9        30.11S HAZE
LAWRENCE       CLEAR     45  39  79 SE8       30.13F
MANHATTAN      PTCLDY    53  40  61 S8        30.08S
OLATHE IND     CLEAR     50  39  66 SE7       30.15S
OLATHE EXE     CLEAR     50  39  66 SE7       30.14S
SALINA         PTCLDY    54  40  59 S12       30.06S
TOPEKA BILLARD CLEAR     50  41  71 SE7       30.11F
TOPEKA FORBES  CLEAR     47  40  76 SE7       30.10F
$$



USA.gov is the U.S. government's official web portal to all federal, state and local government web resources and services.